This demonstration page uses our WeatherBlox Daily Observations layout. Learn more.

Left ArrowRight Arrow

41.55636, -103.73856

Hourly Observations for July 5, 2018

Temp ( °F °C ) Dew Point ( °F °C ) Humidity (%) Winds ( mph kmh ) Pressure ( in mb ) Visibility ( mi km ) Precip ( " mm )
12:58 am 00:58 Mostly Cloudy 65 18.4 61 16.3 88 88 SE 12 19 30.29 1026 10 16 N/A
1:58 am 01:58 Mostly Cloudy 65 18.2 62 16.8 92 92 SSE 9 15 30.30 1026 10 16 N/A
2:58 am 02:58 Clear with Mist and Fog 62 16.7 61 15.9 95 95 ESE 7 11 30.30 1026 6 10 N/A
3:58 am 03:58 Mostly Cloudy with Mist and Fog 64 17.5 62 16.9 96 96 E 7 11 30.32 1027 2 2 N/A
4:58 am 04:58 Mostly Cloudy with Mist and Fog 63 17 62 16.4 96 96 E 5 7 30.33 1027 1 2 N/A
5:58 am 05:58 Mostly Cloudy with Mist and Fog 64 17.5 62 16.8 96 96 ENE 8 13 30.32 1027 3 5 N/A
6:58 am 06:58 Mostly Cloudy with Mist and Fog 63 17.4 62 16.9 97 97 E 10 17 30.35 1028 5 8 N/A
7:58 am 07:58 Mostly Cloudy 65 18.4 61 15.9 85 85 ESE 15 24 30.39 1029 10 16 N/A
8:58 am 08:58 Mostly Cloudy 66 19 62 16.5 86 86 SSE 13 20 30.41 1030 10 16 N/A
9:58 am 09:58 Mostly Cloudy 70 21.2 62 16.4 74 74 SSE 16 26 30.40 1030 10 16 N/A
10:58 am 10:58 Mostly Cloudy 68 20 60 15.8 77 77 SSW 13 20 30.42 1030 10 16 N/A
11:58 am 11:58 Mostly Sunny 74 23.1 60 15.8 64 64 S 12 19 30.40 1030 10 16 N/A
12:58 pm 12:58 Sunny 78 25.5 61 16.1 56 56 SSE 16 26 30.37 1029 10 16 N/A
1:58 pm 13:58 Sunny 80 26.8 60 15.5 50 50 SSE 13 20 30.35 1028 10 16 N/A
2:58 pm 14:58 Sunny 82 27.5 58 14.7 46 46 S 15 24 30.35 1028 10 16 N/A
3:58 pm 15:58 Sunny 81 27 60 15.3 49 49 S 15 24 30.35 1028 10 16 N/A
4:58 pm 16:58 Sunny 81 27.2 59 14.9 47 47 SSE 14 22 30.33 1027 10 16 N/A
5:58 pm 17:58 Sunny 81 27 59 14.8 47 47 SSE 16 26 30.32 1027 10 16 N/A
6:58 pm 18:58 Sunny 79 26 58 14.2 48 48 SSE 17 28 30.31 1027 10 16 N/A
7:58 pm 19:58 Sunny 76 24.2 59 14.8 56 56 SSE 10 17 30.33 1027 10 16 N/A
8:58 pm 20:58 Clear 74 23.3 61 16 64 64 SSE 16 26 30.36 1028 10 16 N/A
9:58 pm 21:58 Clear 72 22.1 58 14.4 62 62 SSE 16 26 30.39 1029 10 16 N/A
10:58 pm 22:58 Mostly Clear 69 20.6 59 15 70 70 SSE 18 30 30.39 1029 10 16 N/A
11:58 pm 23:58 Clear 67 19.3 59 15.2 77 77 S 15 24 30.37 1029 10 16 N/A

Powered by AerisWeather